Theta_e
307 308 309 309 312 312 313 316 317 317 316 317 318 318 317 315 314 313 313 313 314 313 313 314 337 348 348 347 344 344 345 344 345 346 345 345 344 343 343 342 341 339 340 340
314 311 309 309 310 312 313 314 315 314 314 315 316 317 316 316 315 314 314 314 314 315 312 312 325 344 346 344 344 344 343 343 343 343 342 341 341 340 341 339 338 337 336 336
314 313 314 313 311 311 312 313 313 314 314 314 315 316 315 314 313 313 312 314 313 314 312 311 314 329 343 343 343 343 342 342 342 342 341 341 341 341 340 339 338 336 339 339
310 314 315 315 318 315 315 313 314 316 320 317 314 318 313 312 312 312 312 312 314 313 312 310 310 316 339 342 342 343 342 341 341 341 340 340 340 342 341 340 339 337 341 341
308 308 309 314 316 316 317 316 316 318 322 324 322 320 318 312 313 312 311 311 311 313 312 311 311 313 328 342 342 343 342 341 341 341 341 341 341 342 343 342 342 341 342 343
306 307 313 314 313 316 316 319 319 320 321 327 321 322 319 317 314 313 312 312 312 312 311 310 310 313 321 335 341 342 342 341 341 343 343 343 343 344 345 346 344 344 344 345
307 307 306 310 315 316 314 319 318 317 318 321 319 322 321 317 315 314 315 312 311 311 312 312 309 308 320 333 340 342 342 341 341 342 346 346 345 347 346 348 347 347 347 348
310 310 307 309 314 315 315 316 318 312 314 319 320 325 321 318 317 316 315 313 311 310 308 310 310 309 312 331 338 342 342 342 342 342 344 347 347 348 349 348 348 350 351 352
309 311 309 310 312 312 315 316 315 317 319 317 319 318 316 315 317 315 314 314 312 310 311 312 311 309 309 318 336 340 342 343 342 343 344 345 347 348 349 350 351 351 350 348
311 312 310 311 312 314 316 316 320 317 321 320 317 318 316 315 315 316 316 318 317 319 320 320 319 311 309 312 330 337 340 342 342 344 345 347 347 347 348 350 350 349 345 343
310 312 312 312 314 315 318 319 318 316 315 318 318 317 313 314 314 320 321 320 320 320 319 318 320 318 314 311 327 338 338 340 341 343 346 348 348 349 350 349 347 345 339 337
310 310 310 316 313 316 317 319 316 317 316 319 319 318 319 319 323 323 321 319 318 318 318 319 325 324 315 310 327 344 342 341 342 344 347 348 347 348 346 342 341 341 335 331
309 313 312 313 315 316 317 318 320 318 320 320 320 317 316 319 319 319 320 318 318 318 319 320 326 327 318 311 324 345 346 345 347 349 347 345 346 344 337 336 337 337 334 333
310 311 315 312 312 312 314 315 317 314 315 314 318 317 316 316 316 316 317 318 318 319 319 320 322 330 323 316 326 342 350 350 350 348 344 341 337 334 330 329 328 328 326 321
310 314 313 312 312 312 313 314 313 314 314 315 313 314 314 315 314 315 320 322 322 322 321 321 323 328 319 323 334 346 350 348 345 339 334 328 327 328 324 320 319 316 319 315
305 304 306 309 310 312 313 312 313 313 313 313 314 314 313 313 313 315 319 323 324 324 324 325 329 327 321 330 343 345 341 338 334 326 321 320 318 319 318 316 314 315 312 309
307 308 308 310 311 312 316 316 315 317 314 317 319 315 313 314 324 326 324 323 323 328 327 334 336 332 333 341 339 337 331 327 323 320 318 316 314 311 311 311 311 309 308 307
307 308 309 311 311 315 319 315 315 316 317 321 322 321 321 323 322 320 319 323 324 323 319 325 325 324 326 328 325 323 322 321 319 317 315 312 310 308 307 307 306 305 305 305
306 309 310 312 314 315 319 314 315 315 316 319 318 325 326 323 320 315 312 313 317 317 314 317 320 320 320 320 319 319 318 316 316 314 312 311 309 306 305 303 302 302 303 303
311 306 311 315 317 316 316 312 310 314 322 315 316 318 326 323 320 314 310 310 311 310 309 312 314 315 315 316 315 314 314 313 312 311 310 308 307 305 303 302 300 300 301 300
314 312 310 311 314 315 312 309 310 324 323 313 314 320 317 315 314 311 310 309 308 308 308 308 309 310 311 312 312 311 311 311 310 310 308 307 305 304 303 301 299 299 299 298
314 314 316 314 313 313 309 307 314 314 312 313 316 315 313 312 310 308 307 307 307 307 307 307 307 307 307 308 308 307 308 308 307 307 306 305 304 303 301 300 298 299 298 297
315 311 311 312 312 310 308 310 311 312 313 313 315 313 311 309 308 306 306 306 306 306 306 305 305 305 306 306 305 304 303 304 303 303 303 303 303 302 301 300 298 297 297 296
311 310 312 313 311 311 311 311 314 317 316 314 312 310 309 308 306 306 305 305 304 304 305 305 305 304 305 305 304 303 303 303 302 300 300 301 300 301 301 300 299 298 297 296
310 310 312 312 311 311 309 310 312 313 312 312 310 309 308 306 306 305 305 304 304 303 303 304 304 304 304 304 303 305 305 305 302 300 299 299 301 301 300 301 301 300 299 300
309 311 310 310 310 310 308 308 309 310 311 311 310 309 308 307 307 305 305 303 303 302 302 302 302 303 303 302 302 303 304 303 300 296 295 296 297 297 298 298 297 299 299 298
Wind_Speed
5 3 6 11 13 12 9 7 10 8 7 8 16 16 11 9 8 9 8 9 9 10 12 12 25 32 36 38 36 35 35 35 37 34 33 31 34 33 33 33 33 31 30 30
1 6 9 15 10 9 9 11 13 7 9 8 14 22 17 19 17 12 11 12 11 9 6 9 16 22 30 38 41 40 38 39 40 34 29 25 25 30 34 32 31 30 30 30
4 7 13 11 9 11 11 14 11 12 5 9 10 19 15 14 11 10 10 13 10 12 10 9 8 20 25 29 35 40 41 42 42 40 32 21 19 18 27 31 31 31 28 28
8 5 3 9 10 10 13 9 13 13 6 5 4 7 5 7 12 9 12 11 14 12 7 9 10 9 21 27 29 34 38 43 44 45 38 37 29 24 29 30 34 33 31 30
9 14 14 11 5 3 9 6 10 10 7 3 4 4 5 7 10 10 10 11 12 14 9 12 13 15 25 27 31 34 36 38 37 39 38 36 30 24 23 32 31 31 32 31
13 9 10 10 12 8 4 2 3 1 3 7 15 10 5 8 9 7 7 10 10 11 8 8 14 22 23 26 27 32 34 36 39 37 37 39 32 29 28 28 31 32 31 30
16 9 7 18 9 10 2 3 2 2 2 8 4 7 18 6 9 12 12 8 9 7 6 8 9 10 18 21 24 25 31 32 38 39 37 39 35 34 35 32 33 32 31 28
4 8 2 8 14 3 5 9 4 6 3 4 3 6 13 16 18 8 12 11 8 8 6 7 9 11 18 26 30 28 28 31 32 35 38 41 41 35 33 36 34 30 29 26
5 6 7 10 5 8 5 6 12 5 2 2 4 8 14 12 16 6 9 8 10 9 7 6 7 8 15 22 27 34 32 31 36 38 36 34 38 35 35 32 28 25 24 17
3 11 6 4 1 11 11 5 4 2 4 4 5 6 10 4 4 6 6 6 7 5 7 6 6 7 14 25 29 32 36 39 41 40 38 36 36 34 32 28 25 23 23 27
6 6 8 3 4 4 2 6 3 3 3 4 2 6 5 15 11 4 6 6 7 7 8 7 7 7 14 21 24 28 28 29 30 31 29 30 32 34 28 27 26 29 27 19
2 4 6 6 10 9 7 3 5 4 4 4 3 9 3 4 3 4 6 7 7 6 8 7 9 7 7 16 24 24 27 27 29 33 29 28 29 30 27 31 32 32 34 32
3 3 4 7 1 5 2 2 0 2 1 6 3 5 2 5 8 8 9 8 8 7 9 7 7 7 6 12 20 24 27 30 30 30 31 30 31 32 32 39 38 38 39 35
12 4 7 2 3 2 4 6 3 4 2 3 9 14 15 11 9 14 10 9 8 10 11 9 6 8 7 13 20 25 24 29 30 30 30 28 36 39 42 42 43 46 44 42
3 4 5 9 11 10 11 12 11 9 7 6 6 12 17 8 11 14 8 8 10 12 13 10 10 7 6 8 18 22 25 29 33 33 35 31 38 43 46 47 46 45 43 38
3 4 5 6 8 7 9 10 11 13 14 16 19 26 20 19 15 12 11 8 10 12 12 14 12 6 10 14 21 26 27 31 35 33 33 37 37 44 44 45 46 44 41 36
4 3 4 5 7 12 6 2 4 8 10 10 13 21 14 15 6 5 7 10 7 8 13 10 5 7 11 16 22 21 26 35 36 37 37 39 40 41 43 45 43 41 37 32
5 2 2 5 6 2 2 6 9 13 14 9 10 14 6 3 5 10 11 8 4 6 9 7 8 11 14 23 36 27 27 30 32 35 35 37 42 42 43 44 42 38 34 31
10 4 3 3 2 7 1 5 7 7 8 11 12 5 2 4 3 11 14 12 8 3 12 10 9 22 25 28 35 29 29 31 30 31 34 36 43 44 42 39 39 37 35 32
2 9 3 2 4 4 3 14 20 8 5 14 15 14 6 5 3 5 12 14 13 15 16 13 16 27 29 26 35 35 27 27 24 28 33 35 37 42 40 40 36 36 37 35
4 1 6 6 4 4 9 22 17 3 5 17 15 7 13 7 6 7 10 14 16 16 17 25 26 28 25 29 38 34 29 25 25 32 38 36 36 41 37 40 34 40 38 35
3 5 3 3 3 5 18 17 5 7 14 13 10 10 16 13 13 13 14 15 16 17 20 22 25 30 29 33 39 35 30 26 28 34 37 36 35 34 35 36 34 38 36 34
2 3 3 2 2 8 16 17 21 18 12 6 8 11 15 15 15 14 14 16 16 18 20 27 31 33 34 34 34 36 28 27 30 35 32 33 35 34 32 34 32 32 30 29
2 4 3 5 3 9 16 19 16 13 12 14 12 13 16 17 15 16 15 15 15 17 19 25 30 29 29 33 34 32 35 33 36 32 30 32 34 32 31 31 27 29 26 24
3 9 7 4 9 5 19 19 13 15 16 16 15 14 16 18 16 16 15 15 14 19 22 24 25 25 24 25 27 29 26 29 32 28 26 30 33 31 30 28 24 24 21 21
5 5 4 3 12 7 13 16 18 16 14 14 17 17 16 16 16 15 15 16 18 20 21 24 24 24 22 22 23 23 22 21 28 21 20 26 31 31 28 28 24 18 18 16
Wind_Direction
205 161 196 206 212 221 225 241 262 251 264 296 276 288 285 285 291 301 277 260 251 239 249 232 207 191 183 187 188 191 189 195 194 194 195 201 207 212 212 214 216 218 222 223
290 240 227 223 224 222 224 241 259 270 250 244 272 270 270 265 263 244 252 264 257 254 244 249 195 193 187 184 188 191 194 195 196 195 194 201 205 215 218 216 219 221 222 222
283 273 292 234 234 223 231 232 245 244 252 257 280 281 256 255 247 239 228 238 244 235 226 233 211 198 192 192 187 190 193 197 197 199 197 197 202 211 214 219 219 219 221 220
267 259 345 266 245 225 245 223 243 251 254 238 144 284 205 229 247 218 228 221 240 240 211 224 225 199 203 200 195 192 191 196 198 197 193 195 199 195 205 208 215 217 215 218
240 262 281 277 251 276 266 202 222 221 226 283 264 253 256 209 236 240 222 223 232 243 211 200 218 215 209 199 195 194 192 195 194 195 195 192 200 207 203 211 214 216 218 220
255 260 253 235 244 230 355 3 344 286 186 234 235 211 227 219 225 248 228 231 218 238 231 201 216 220 215 212 199 191 191 194 194 194 195 195 199 197 196 202 211 217 216 215
304 259 247 228 259 239 115 95 274 310 197 242 206 207 244 253 226 227 239 235 254 236 237 221 189 207 215 211 206 195 189 194 194 196 194 199 201 201 202 199 202 206 210 214
323 320 230 201 224 225 182 167 236 195 187 242 341 213 255 221 246 227 227 240 248 262 218 227 238 195 209 208 202 195 194 196 195 196 198 202 203 201 201 204 206 202 201 197
306 256 318 298 262 189 174 215 228 287 302 354 242 268 287 249 249 225 242 241 243 246 252 230 237 232 196 206 209 199 193 198 196 197 198 201 201 200 202 200 196 192 194 176
274 293 254 298 175 229 225 176 169 198 208 227 252 252 234 17 156 211 248 243 263 265 276 275 239 248 229 210 209 210 200 196 199 198 196 196 197 197 200 193 188 173 147 125
267 237 298 328 233 228 155 211 167 158 172 204 239 254 214 226 249 214 269 280 259 275 272 271 269 240 233 222 206 200 203 199 193 192 190 187 187 190 180 177 171 159 156 146
302 292 281 250 247 313 272 217 168 177 205 219 267 261 274 184 169 191 257 278 290 272 271 271 276 260 226 211 195 192 190 189 188 182 176 174 167 169 161 149 149 161 151 164
305 260 314 303 310 222 94 145 357 69 86 221 214 262 122 337 331 309 293 298 296 296 289 263 268 258 227 201 189 188 185 185 176 169 164 162 155 149 133 140 150 151 153 157
271 258 256 256 309 3 317 313 228 152 200 255 238 281 283 304 299 296 294 271 279 290 284 279 264 254 230 197 185 180 174 167 163 159 150 156 144 144 138 140 143 144 147 148
2 268 290 280 268 256 255 259 255 235 225 231 274 281 276 282 289 278 264 286 293 290 288 270 262 245 222 175 169 166 157 151 149 142 141 138 138 139 137 136 136 138 140 139
7 291 335 286 269 262 268 261 258 249 247 246 256 267 272 275 275 273 271 284 281 296 280 272 253 203 188 172 164 150 145 139 138 132 131 130 130 133 133 133 134 136 133 133
303 314 335 272 323 313 284 6 319 283 253 236 247 251 278 283 284 337 331 299 287 313 315 246 155 165 165 146 132 130 139 134 133 132 133 131 128 125 126 130 133 131 130 129
246 248 263 283 321 340 82 32 331 316 270 328 293 259 258 195 105 38 4 325 307 356 337 4 96 82 95 116 111 116 125 123 127 128 131 131 126 122 125 129 129 129 129 122
223 209 267 274 268 286 5 29 341 342 297 349 343 302 122 161 178 49 12 3 33 3 56 32 48 97 92 92 98 115 113 117 125 128 130 131 128 123 125 123 126 127 123 119
281 198 224 304 330 295 17 332 326 296 260 354 347 326 260 322 66 15 19 18 40 45 55 34 61 80 82 97 106 99 100 109 117 126 122 118 121 120 121 124 123 124 123 121
316 169 237 260 249 275 0 335 321 228 332 326 330 32 60 69 58 63 48 45 42 46 62 58 57 68 75 91 93 89 91 94 110 111 105 107 112 115 121 122 125 123 122 123
316 324 343 323 339 335 346 328 344 294 302 308 328 76 87 77 63 55 56 52 52 58 53 67 69 65 65 78 89 84 78 91 102 101 103 106 111 113 119 122 123 124 125 120
335 343 298 335 299 286 290 276 282 271 261 299 91 82 87 79 69 61 60 56 54 54 60 62 67 66 60 68 78 80 77 83 89 92 94 102 108 114 123 123 122 122 124 121
289 314 308 316 285 319 343 346 1 41 78 84 89 95 91 86 76 67 59 56 54 52 54 66 68 69 66 63 70 77 87 93 92 89 97 108 112 119 124 125 129 129 128 124
310 311 317 302 344 341 3 4 18 47 70 83 80 84 91 94 80 79 70 61 56 52 51 57 65 69 69 73 80 86 99 99 103 101 107 115 121 123 124 123 135 138 137 131
336 338 1 2 5 7 5 10 33 50 59 75 88 84 75 79 82 76 72 66 63 56 52 54 57 66 70 72 81 100 105 122 121 114 110 115 118 120 121 124 118 122 125 123